Regional Weather Roundup
Issued by NWS

Home | Current Version | Previous Version | Text Only | Print | Product List | Glossary Off
Versions: 1 2 3 4 5 6 7 8 9 10 11 12 13 14 15 16 17 18 19 20 21 22 23 24 25 26 27 28 29 30 31 32 33 34 35 36 37 38 39 40 41 42 43 44 45 46 47 48 49 50

000
ASUS43 KDTX 092001
RWRMI
MICHIGAN HOURLY REGIONAL WEATHER ROUNDUP
NATIONAL WEATHER SERVICE DETROIT/PONTIAC MI
300 PM EST FRI DEC 09 2016

NOTE: "FAIR" INDICATES FEW OR NO CLOUDS BELOW 12,000 FEET WITH NO
SIGNIFICANT WEATHER AND/OR OBSTRUCTION TO VISIBILITY.

MIZ047>049-052>055-059>063-066>070-074>076-081>083-092100-
SOUTHEAST LOWER MICHIGAN

CITY           SKY/WX    TMP DP  RH WIND       PRES   REMARKS
ADRIAN         FLURRIES  28  24  85 NW12      30.39S WCI  18
ALMA           CLOUDY    29  12  48 W9        30.36R WCI  21
ANN ARBOR      CLOUDY    29  19  66 W15       30.36S WCI  18
BAD AXE        CLOUDY    28  16  62 W8        30.32F WCI  19
CARO           LGT SNOW  28  22  81 W7        30.33S WCI  20
DETROIT CITY   MOSUNNY   32  13  45 W10       30.35S WCI  24
DETROIT        PTSUNNY   31  17  56 W8        30.37S WCI  23
FLINT          CLOUDY    29  13  51 NW14      30.34S WCI  18
GROSSE ILE     CLOUDY    31  17  56 W13G18    30.36S WCI  21
HILLSDALE      LGT SNOW  27  21  80 NW12G18   30.36R WCI  16
HOWELL         CLOUDY    29  16  58 W14       30.35R WCI  18

CITY           SKY/WX    TMP DP  RH WIND       PRES   REMARKS
JACKSON        LGT SNOW  27  19  72 W12G20    30.37R WCI  17
LAMBERTVILLE   LGT SNOW  31  24  75 W6        30.39S WCI  25
LANSING        FLURRIES  27  17  66 W13       30.38R WCI  16
LAPEER         NOT AVBL
MASON          CLOUDY    26  23  87 W5        30.37S WCI  20
MONROE         FLURRIES  29  24  81 NW9       30.38S WCI  20
MT. CLEMENS    PTSUNNY   32  12  44 W14G22    30.32S WCI  22
PONTIAC        PTSUNNY   29  11  47 W17G28    30.32S WCI  17
PORT HOPE        N/A     29  17  61 NW10      30.30R WCI  20
PORT HURON     CLOUDY    28  23  80 W8        30.34S WCI  20
TRI CITIES     PTSUNNY   28  20  71 W9        30.34F WCI  19
MIDLAND        CLOUDY    31  14  48 W13G21    30.33S WCI  21
TROY           MOSUNNY   31   8  37 W10G18    30.36S WCI  23
SAGINAW HB     LGT SNOW  30  19  64 W9        30.34S WCI  22
$$
MIZ043>046-050>051-056>058-064>065-071>073-077>080-092100-
SOUTHWEST LOWER MICHIGAN

CITY           SKY/WX    TMP DP  RH WIND       PRES   REMARKS
BATTLE CREEK   CLOUDY    26  19  74 W13       30.39S WCI  15
BENTON HARBOR  CLOUDY    28  14  55 W15G24    30.46R WCI  16
BIG RAPIDS     MOSUNNY   26  14  61 W7        30.33F WCI  18
COLDWATER      CLOUDY    28  22  79 W13G18    30.39R WCI  17
FREMONT        CLOUDY    25  14  62 NW10      30.38S WCI  15
HOLLAND        FLURRIES  27  17  66 W10       30.42S WCI  17
GRAND RAPIDS   CLOUDY    26  19  74 W13       30.39S HAZE    WCI  15
IONIA          CLOUDY    27  17  68 W9        30.37S WCI  17
KALAMAZOO      LGT SNOW  27  19  72 NW8       30.41S WCI  19
LUDINGTON      FLURRIES  26  15  63 W6        30.37F WCI  19
MARSHALL       CLOUDY    28  20  71 W13       30.37S WCI  17
MOUNT PLEASANT CLOUDY    29  14  53 W8        30.33S WCI  21
MUSKEGON       LGT SNOW  25  20  81 W8G24     30.41S VSB 3/4 WCI  16
SOUTH HAVEN    FLURRIES  28  15  60 W12G20    30.43S WCI  17
$$
MIZ016>042-092100-
NORTHERN LOWER MICHIGAN

CITY           SKY/WX    TMP DP  RH WIND       PRES   REMARKS
ALPENA         CLOUDY    25  14  63 N9        30.32R WCI  15
BEAVER ISLAND  CLOUDY    26  15  63 W7        30.32F WCI  19
BELLAIRE       LGT SNOW  26  23  88 N3        30.32S
CADILLAC       LGT SNOW  25  19  80 W12G18    30.28S WCI  14
CHARLEVOIX     CLOUDY    28  16  62 NW6       30.34S WCI  21
FRANKFORT      FLURRIES  27  20  72 NW14G22   30.35S WCI  16
GAYLORD        FLURRIES  24  15  68 CALM      30.26F
GRAYLING       LGT SNOW  26  22  82 W7        30.28S WCI  19
HARBOR SPRINGS CLOUDY    26  15  63 NW6       30.31S WCI  19
HOUGHTON LAKE  LGT SNOW  24  20  84 NW12      30.29S VSB 3/4 WCI  13
MANISTEE       FLURRIES  27  16  63 W12       30.36S WCI  17
OSCODA         CLOUDY    29  14  53 NW9       30.31S WCI  20
PELLSTON       CLOUDY    24  16  71 NW9       30.31F WCI  14
ROGERS CITY    PTSUNNY   25  15  65 N6        30.32S WCI  18
TRAVERSE CITY  FLURRIES  27  21  78 W12       30.32S WCI  17
$$
MIZ007>008-015-092100-
EASTERN UPPER MICHIGAN

CITY           SKY/WX    TMP DP  RH WIND       PRES   REMARKS
KINROSS        CLOUDY    23  12  62 CALM      30.31F
MACKINAC ISLAN CLOUDY    23  16  75 N7        30.30F WCI  15
NEWBERRY       CLOUDY    21  17  82 N3        30.30F
S. S. MARIE    CLOUDY    21   8  57 W3        30.31S
MUNISING         N/A     23  22  96 NW3       30.33F
$$
MIZ004>006-011>014-085-092100-
CENTRAL UPPER MICHIGAN

CITY           SKY/WX    TMP DP  RH WIND       PRES   REMARKS
MANISTIQUE     FLURRIES  23  20  88 W6        30.32F WCI  16
ESCANABA       CLOUDY    25  11  55 NW9       30.35F WCI  15
MENOMINEE      CLOUDY    25   9  50 NW7       30.39S WCI  17
SAWYER-GWINN   PTSUNNY   19   9  63 NW14      30.31F WCI   6
$$
MIZ001>003-009>011-084-092100-
WESTERN UPPER MICHIGAN

CITY           SKY/WX    TMP DP  RH WIND       PRES   REMARKS
IRON MOUNTAIN  CLOUDY    21   6  52 NW14      30.34R WCI   8
HOUGHTON       FLURRIES  18   7  62 NW10      30.33F WCI   6
COPPER HARBOR    N/A     22  15  75 N18G28    30.36S WCI   7
IRONWOOD       FLURRIES  15   8  73 W12       30.40S WCI   2
$$

ABBREVIATIONS USED IN REMARKS
   TC - TEMPERATURE IN CELSIUS
  WCI - WIND CHILL INDEX
   HX - HEAT INDEX
  VSB - VISIBILITY




USA.gov is the U.S. government's official web portal to all federal, state and local government web resources and services.